Terminal Aerodrome Forecast
Issued by NWS Amarillo, TX

Home | Current Version | Previous Version | Text Only | Print | Product List | Glossary On
Versions: 1 2 3 4 5 6 7 8 9 10 11 12 13 14 15 16 17 18 19 20 21 22 23 24 25 26 27 28
000
FTUS44 KAMA 221400 AAA
TAFAMA
TAF AMD
KAMA 221407Z 2214/2312 14010KT P6SM SCT020 OVC080
      TEMPO 2214/2216 BKN020
     FM221700 15014KT P6SM OVC080
     FM230100 16010KT P6SM BKN120=

USA.gov is the U.S. government's official web portal to all federal, state and local government web resources and services.